Location: Albany
(35.0000°S, 118.0000°E)
Time: 04:19:54
(UTC-04:00)

Transit 2A - Visible Passes

Search period start: 30 September 2016 00:00
Search period end: 10 October 2016 00:00
Orbit: 593 x 967 km, 66.7° (Epoch: 29 September)

Date Brightness Start Highest point End Pass type
(mag) Time Alt. Az. Time Alt. Az. Time Alt. Az.
30 Sep 8.5 09:38:18 10° SSW 09:39:20 16° SSW 09:39:20 16° SSW visible
01 Oct 7.9 09:04:28 10° SSW 09:06:32 24° S 09:06:32 24° S visible
02 Oct 7.4 08:30:46 10° S 08:33:45 27° SSE 08:33:45 27° SSE visible
02 Oct 8.9 10:13:59 10° SW 10:14:16 11° SW 10:14:16 11° SW visible
03 Oct 7.4 07:57:14 10° S 08:01:02 24° SE 08:01:02 24° SE visible
03 Oct 8.2 09:39:38 10° SW 09:41:33 22° SW 09:41:33 22° SW visible
04 Oct 7.7 07:23:56 10° SSE 07:27:15 17° SE 07:28:23 16° ESE visible
04 Oct 7.2 09:05:30 10° SSW 09:08:55 41° SW 09:08:55 41° SW visible
05 Oct 8.1 06:51:18 10° SSE 06:53:01 11° SE 06:54:46 10° ESE visible
05 Oct 6.1 08:31:30 10° SSW 08:36:20 74° S 08:36:20 74° S visible
06 Oct 6.2 07:57:38 10° SSW 08:02:50 55° ESE 08:03:50 48° E visible
06 Oct 8.5 09:42:04 10° WSW 09:44:22 17° W 09:44:22 17° W visible
07 Oct 6.7 07:23:53 10° S 07:28:48 38° ESE 07:31:25 25° ENE visible
07 Oct 7.7 09:07:18 10° SW 09:11:50 27° WNW 09:11:58 27° WNW visible
08 Oct 7.2 06:50:17 10° S 06:54:42 26° SE 06:59:07 11° ENE visible
08 Oct 7.2 08:32:54 10° SW 08:37:57 41° WNW 08:39:40 33° NNW visible
09 Oct 6.6 07:58:43 10° SW 08:04:02 61° WNW 08:07:28 24° N visible
